sat.trackr.live / text

‹ back to catalog

STARLINK-35395

NORAD 66014 · 2025-232K

PAYLOAD ACTIVE UNKNOWN

§ Identity

Operator
Country
US
Launch date
2025-10-16
Launch site
AFETR
Launch vehicle
Mass (kg)
RCS (m²)

Purposes: comms

External: N2YO · Heavens-Above · Gunter

§ Orbital elements

Epoch: 2026-09-20T08:09:45.740736Z

Period
93.85 min
Inclination
53.1579°
Eccentricity
0.0001311
Mean motion
15.34397784 rev/d
Perigee alt
461.8 km
Apogee alt
463.6 km
Semi-major
6,840.8 km
B*
1.5098e-4
RAAN
278.6286°
Arg perigee
86.6808°
Mean anomaly
273.4345°
Rev number
5,325

§ Raw data

STARLINK-353951 66014U 25232K   26263.34011274  .00004728  00000+0  15098-3 0  99982 66014  53.1579 278.6286 0001311  86.6808 273.4345 15.34397784 53254

JSON: /api/v1/satellites/66014 · /tle

For live sub-satellite position, see the globe view (requires WebGL).

§ Visibility from observer

Set your observer location to see the next 7 days of passes ≥ 10°. The values pass through the URL so the page stays shareable.

No JS? Fill the form by hand. The geolocation button needs JavaScript.